Other Public Products
Issued by NWS Charleston, SC

Current Version | Previous Version | Text Only | Print | Product List | Glossary Off
Versions: 1 2 3 4 5 6 7 8 9 10 11 12 13 14 15 16 17 18 19 20 21 22 23 24 25 26 27 28 29 30 31 32 33 34 35 36 37 38 39 40 41 42 43 44 45 46 47 48 49 50

000
FPUS82 KCHS 210625
OPUCHS

TEST...KCHS/KSAV Gateway Observations...TEST
National Weather Service Charleston SC
200 AM EDT THU SEP 21 2017

NOTE: "fair" indicates few or no clouds below 12,000 feet with no
significant weather and/or obstructions to visibility.

SCZ050-WAZ558-NCZ071-TXZ119-213-PAZ071-DCZ001-FLZ074-172-MI076-
NYZ176-178-MAZ016-IL014-TNZ027-NJZ106-GAZ044-MD014-210700-

...Gateway Observations for Charleston International...

CITY           SKY/WX    TMP DP  RH WIND       PRES   REMARKS
Chas Airport   CLEAR     74  73  97 S3        30.01S
6HR MIN TEMP:  74; 6HR MAX TEMP:  79;

Seattle        MOCLDY    53  48  83 SE6       29.83R
6HR MIN TEMP:  52; 6HR MAX TEMP:  55;

Charlotte      PTCLDY    72  70  93 NW5       30.04S
6HR MIN TEMP:  69; 6HR MAX TEMP:  80;

Dallas DFW     CLOUDY    85  71  63 S14       29.88S HX  90
6HR MIN TEMP:  85; 6HR MAX TEMP:  94;

Dallas Love    CLOUDY    84  71  65 SE16      29.89F
6HR MIN TEMP:  84; 6HR MAX TEMP:  94;

Philladelphia  PTCLDY    72  64  76 NW6       29.98R
6HR MIN TEMP:  72; 6HR MAX TEMP:  80;

Wash National  CLEAR     73  64  73 N5        30.00S
6HR MIN TEMP:  72; 6HR MAX TEMP:  82;

Baltimore      CLEAR     65  63  93 CALM      29.99R
6HR MIN TEMP:  63; 6HR MAX TEMP:  79;

Miami          CLOUDY    84  76  76 CALM      29.96S HX  93
6HR MIN TEMP:  83; 6HR MAX TEMP:  85;

Detroit        PTCLDY    68  67  96 CALM      30.06R FOG
6HR MIN TEMP:  67; 6HR MAX TEMP:  75;

Newark         MOCLDY    74  63  68 N13       29.94S
6HR MIN TEMP:  74; 6HR MAX TEMP:  78;

Laguardia      CLOUDY    74  65  73 NW13      29.94R
6HR MIN TEMP:  74; 6HR MAX TEMP:  77;

J F K          CLOUDY    74  63  68 N13       29.94S
6HR MIN TEMP:  74; 6HR MAX TEMP:  77;

Boston Logan   CLOUDY    72  64  76 N21G30    29.89
6HR MIN TEMP:  70; 6HR MAX TEMP:  72; 6HR PCP: TRACE;

Ft. Lauderdale PTCLDY    81  77  88 E3        29.95S
                                      6HR PCP: TRACE;

Chicago O`Hare CLOUDY    81  67  62 SW9       29.94R
6HR MIN TEMP:  80; 6HR MAX TEMP:  87;

Chicago Midway CLOUDY    79  68  69 SW7       29.95R
6HR MIN TEMP:  79; 6HR MAX TEMP:  89;

Houston Bush   PTCLDY    80  76  87 S7        29.96S
6HR MIN TEMP:  80; 6HR MAX TEMP:  85;

Houston Hobby  PTCLDY    81  76  84 CALM      29.95S
6HR MIN TEMP:  81; 6HR MAX TEMP:  85;

Nashville      CLEAR     72  69  90 SE5       30.04S
6HR MIN TEMP:  72; 6HR MAX TEMP:  83;

Atlanta        PTCLDY    74  68  81 NW3       30.05S
6HR MIN TEMP:  73; 6HR MAX TEMP:  81;


$$

GAZ044-118-TXZ119-213-NCZ071-DCZ001-MDZ014-506-PAZ021-071-NJZ106-
NYZ176-178-MAZ106-OHZ011-021-055-MIZ076-KYZ091-ILZ014-INZ047-
MNZ060-ONZ431-210700-

...Gateway Observations for Savannah International...

CITY           SKY/WX    TMP DP  RH WIND       PRES   REMARKS
Savannah Arpt  CLEAR     73  70  90 CALM      30.02S
6HR MIN TEMP:  72; 6HR MAX TEMP:  77;

Atlanta        PTCLDY    74  68  81 NW3       30.05S
6HR MIN TEMP:  73; 6HR MAX TEMP:  81;

Charlotte      PTCLDY    72  70  93 NW5       30.04S
6HR MIN TEMP:  69; 6HR MAX TEMP:  80;

Dallas DFW     CLOUDY    85  71  63 S14       29.88S HX  90
6HR MIN TEMP:  85; 6HR MAX TEMP:  94;

Houston Bush   PTCLDY    80  76  87 S7        29.96S
6HR MIN TEMP:  80; 6HR MAX TEMP:  85;

Wash National  CLEAR     73  64  73 N5        30.00S
6HR MIN TEMP:  72; 6HR MAX TEMP:  82;

Wash Dulles    CLEAR     61  61 100 CALM      30.02R
6HR MIN TEMP:  60; 6HR MAX TEMP:  73;

Baltimore      CLEAR     65  63  93 CALM      29.99R
6HR MIN TEMP:  63; 6HR MAX TEMP:  79;

Philadelphia   PTCLDY    72  64  76 NW6       29.98R
6HR MIN TEMP:  72; 6HR MAX TEMP:  80;

Newark         MOCLDY    74  63  68 N13       29.94S
6HR MIN TEMP:  74; 6HR MAX TEMP:  78;

Laguardia      CLOUDY    74  65  73 NW13      29.94R
6HR MIN TEMP:  74; 6HR MAX TEMP:  77;

J F K          CLOUDY    74  63  68 N13       29.94S
6HR MIN TEMP:  74; 6HR MAX TEMP:  77;

Boston         CLOUDY    72  64  76 N21G30    29.89
6HR MIN TEMP:  70; 6HR MAX TEMP:  72; 6HR PCP: TRACE;

Pittsburg      PTCLDY    66  64  93 CALM      30.06R
6HR MIN TEMP:  66; 6HR MAX TEMP:  75;

Akron          CLEAR     68  63  84 CALM      30.07R
6HR MIN TEMP:  67; 6HR MAX TEMP:  76;

Cleveland      PTCLDY    70  63  78 CALM      30.07R
6HR MIN TEMP:  68; 6HR MAX TEMP:  78;

Cincinnati     CLEAR     68  68 100 CALM      30.05R
6HR MIN TEMP:  67; 6HR MAX TEMP:  76;

Columbus       CLEAR     66  66 100 CALM      30.07R
Detroit        PTCLDY    68  67  96 CALM      30.06R FOG
6HR MIN TEMP:  67; 6HR MAX TEMP:  75;

Chicago O`Hare CLOUDY    81  67  62 SW9       29.94R
6HR MIN TEMP:  80; 6HR MAX TEMP:  87;

Minneapolis    CLEAR     58  55  90 CALM      29.99R
6HR MIN TEMP:  58; 6HR MAX TEMP:  70;

Indianapolis   CLEAR     73  70  90 S7        30.02R
6HR MIN TEMP:  73; 6HR MAX TEMP:  83;

Toronto Canada CLEAR     68  61  77 NW3       30.07R

$$




USA.gov is the U.S. government's official web portal to all federal, state and local government web resources and services.